Date,TemperatureHighF,TemperatureAvgF,TemperatureLowF,DewpointHighF,DewpointAvgF,DewpointLowF,HumidityHigh,HumidityAvg,HumidityLow,PressureMaxIn,PressureMinIn,WindSpeedMaxMPH,WindSpeedAvgMPH,GustSpeedMaxMPH,PrecipitationSumIn
2013-3-1,39,36,33,-100,-100,-100,0,0,100,0.00,40.00,0,-999,0,0.43
2013-3-2,48,40,36,-100,-100,-100,0,0,100,0.00,40.00,0,-999,0,0.13
2013-3-3,37,32,26,-100,-100,-100,0,0,100,0.00,40.00,0,-999,0,0.35
2013-3-4,32,27,21,-100,-100,-100,0,0,100,0.00,40.00,0,-999,0,0.01
2013-3-5,35,24,10,-100,-100,-100,0,0,100,0.00,40.00,0,-999,0,0.01
2013-3-6,34,31,28,-100,-100,-100,0,0,100,0.00,40.00,0,-999,0,0.12
2013-3-7,40,35,32,-100,-100,-100,0,0,100,0.00,40.00,0,-999,0,0.22
2013-3-8,42,33,23,-100,-100,-100,0,0,100,0.00,40.00,0,-999,0,0.02
2013-3-9,45,35,23,-100,-100,-100,0,0,100,0.00,40.00,0,-999,0,0.00
2013-3-10,46,37,29,-100,-100,-100,0,0,100,0.00,40.00,0,-999,0,0.01
2013-3-11,44,37,32,-100,-100,-100,0,0,100,0.00,40.00,0,-999,0,0.01
2013-3-12,35,32,28,-100,-100,-100,0,0,100,0.00,40.00,0,-999,0,0.46
2013-3-13,49,39,34,-100,-100,-100,0,0,100,0.00,40.00,0,-999,0,0.49
2013-3-14,49,40,34,-100,-100,-100,0,0,100,0.00,40.00,0,-999,0,0.01
2013-3-15,50,44,36,-100,-100,-100,0,0,100,0.00,40.00,0,-999,0,0.04
2013-3-16,45,38,34,-100,-100,-100,0,0,100,0.00,40.00,0,-999,0,0.11
2013-3-17,36,32,24,-100,-100,-100,0,0,100,0.00,40.00,0,-999,0,0.28
2013-3-18,35,29,22,-100,-100,-100,0,0,100,0.00,40.00,0,-999,0,0.22
2013-3-19,41,29,15,-100,-100,-100,0,0,100,0.00,40.00,0,-999,0,0.01
2013-3-20,39,32,24,-100,-100,-100,0,0,100,0.00,40.00,0,-999,0,0.31
2013-3-21,37,34,30,-100,-100,-100,0,0,100,0.00,40.00,0,-999,0,0.10
2013-3-22,34,29,26,-100,-100,-100,0,0,100,0.00,40.00,0,-999,0,0.04
2013-3-23,35,24,15,-100,-100,-100,0,0,100,0.00,40.00,0,-999,0,0.04
2013-3-24,37,27,18,-100,-100,-100,0,0,100,0.00,40.00,0,-999,0,0.03
2013-3-25,43,28,12,-100,-100,-100,0,0,100,0.00,40.00,0,-999,0,0.03
2013-3-26,50,31,16,-100,-100,-100,0,0,100,0.00,40.00,0,-999,0,0.01
2013-3-27,54,36,21,-100,-100,-100,0,0,100,0.00,40.00,0,-999,0,0.04
2013-3-28,53,40,33,-100,-100,-100,0,0,100,0.00,40.00,0,-999,0,0.12
2013-3-29,51,40,32,-100,-100,-100,0,0,100,0.00,40.00,0,-999,0,0.06
2013-3-30,57,41,29,-100,-100,-100,0,0,100,0.00,40.00,0,-999,0,0.05
2013-3-31,56,41,28,-100,-100,-100,0,0,100,0.00,40.00,0,-999,0,0.01